Santa Fe, NM

10:00 AM MST on December 15, 2017 (GMT -0700)
Santa Fe Municipal

Weather History for KSAF - October, 2012

Change the Weather History Date:

Monday, October 29, 2012

  Actual Average Record
Temperature  
Mean Temperature 52 °F -  
Max Temperature 70 °F 54 °F 78 °F (2016)
Min Temperature 36 °F 25 °F 22 °F (1980)
Degree Days  
Heating Degree Days 12    
Growing Degree Days 2 (Base 50)    
Moisture  
Dew Point 18 °F    
Average Humidity 30    
Maximum Humidity 50    
Minimum Humidity 15    
Precipitation  
Precipitation 0.00 in - - ()
Sea Level Pressure  
Sea Level Pressure 30.08 in    
Wind  
Wind Speed 7 mph (NNW)    
Max Wind Speed 18 mph    
Max Gust Speed 24 mph    
Visibility 10 miles    
Events      
Averages and records for this station are not official NWS values.
T = Trace of Precipitation, MM = Missing Value Source: NWS Daily Summary

Daily Weather History Graph

Daily Weather History Graph

Search for Another Location

Airport or City:

Trip Planner

Search our weather history database for the weather conditions in past years. The results will help you decide how hot, cold, wet, or windy it might be!

Date:

Astronomy

Oct. 29, 2012 Rise Set
Actual Time 7:23 AM MDT 6:11 PM MDT
Civil Twilight 6:57 AM MDT 6:37 PM MDT
Nautical Twilight 6:27 AM MDT 7:07 PM MDT
Astronomical Twilight 5:57 AM MDT 7:37 PM MDT
Moon 6:06 PM MDT (10/29) 7:15 AM MDT (10/29)
Length of Visible Light 11h 40m
Length of Day
10h 47m
Full, 100% of the Moon is Illuminated
Oct 29
Full
Oct 29
Full
Nov 6
Last Quarter
Nov 13
New
Nov 20
First Quarter

Hourly Weather History & Observations

Time (MDT) Temp. Windchill Dew Point Humidity Pressure Visibility Wind Dir Wind Speed Gust Speed Precip Events Conditions
12:53 AM 43.0 °F 41.3 °F 17.1 °F 35% 30.09 in 10.0 mi WNW 3.5 mph - N/A   Clear
1:53 AM 37.0 °F 32.4 °F 16.0 °F 42% 30.10 in 10.0 mi NNW 5.8 mph - N/A   Clear
2:53 AM 37.9 °F 32.7 °F 18.0 °F 45% 30.08 in 10.0 mi North 6.9 mph - N/A   Clear
3:53 AM 39.0 °F 35.7 °F 19.9 °F 46% 30.07 in 10.0 mi North 4.6 mph - N/A   Clear
4:53 AM 39.0 °F 32.8 °F 19.9 °F 46% 30.06 in 10.0 mi North 9.2 mph - N/A   Clear
5:53 AM 37.9 °F 32.7 °F 19.0 °F 47% 30.09 in 10.0 mi NW 6.9 mph - N/A   Clear
6:53 AM 36.0 °F 30.3 °F 19.0 °F 50% 30.14 in 10.0 mi North 6.9 mph - N/A   Clear
7:53 AM 36.0 °F 28.5 °F 19.0 °F 50% 30.19 in 10.0 mi North 10.4 mph - N/A   Clear
8:53 AM 44.1 °F 36.2 °F 19.9 °F 38% 30.17 in 10.0 mi North 18.4 mph 24.2 mph N/A   Clear
9:53 AM 52.0 °F - 19.9 °F 28% 30.17 in 10.0 mi North 11.5 mph - N/A   Clear
10:53 AM 55.9 °F - 19.0 °F 24% 30.14 in 10.0 mi NNW 12.7 mph - N/A   Clear
11:53 AM 61.0 °F - 21.0 °F 21% 30.12 in 10.0 mi NNW 12.7 mph - N/A   Clear
12:53 PM 64.9 °F - 21.0 °F 19% 30.07 in 10.0 mi NNW 5.8 mph - N/A   Clear
1:53 PM 68.0 °F - 21.0 °F 17% 30.05 in 10.0 mi NNW 13.8 mph 20.7 mph N/A   Clear
2:53 PM 66.9 °F - 21.0 °F 17% 30.02 in 10.0 mi Calm Calm - N/A   Clear
3:53 PM 69.1 °F - 19.9 °F 15% 30.00 in 10.0 mi Calm Calm - N/A   Clear
4:53 PM 69.1 °F - 19.9 °F 15% 29.99 in 10.0 mi Calm Calm - N/A   Clear
5:53 PM 66.0 °F - 19.0 °F 17% 30.01 in 10.0 mi Calm Calm - N/A   Clear
6:53 PM 57.9 °F - 17.1 °F 20% 30.06 in 10.0 mi WNW 4.6 mph - N/A   Clear
7:53 PM 52.0 °F - 16.0 °F 24% 30.10 in 10.0 mi NNW 3.5 mph - N/A   Clear
8:53 PM 52.0 °F - 12.9 °F 21% 30.07 in 10.0 mi NE 6.9 mph - N/A   Clear
9:53 PM 46.0 °F 41.9 °F 10.9 °F 24% 30.08 in 10.0 mi North 8.1 mph - N/A   Clear
10:53 PM 46.0 °F 41.4 °F 10.9 °F 24% 30.06 in 10.0 mi North 9.2 mph - N/A   Clear
11:53 PM 43.0 °F 38.2 °F 12.0 °F 28% 30.06 in 10.0 mi North 8.1 mph - N/A   Clear